[Iaude] MPEC E168: 2024 EQ3 [a=1.15,e=0.32,i=8.5,H=27.0]

mpec at cfa.harvard.edu mpec at cfa.harvard.edu
Wed Mar 13 08:50:53 EDT 2024


M.P.E.C. 2024-E168                               Issued 2024 March 13, 12:49 UT

     The Minor Planet Electronic Circulars contain information on unusual
         minor planets, routine data on comets and natural satellites,
         and occasional editorial announcements.  They are published
    on behalf of Division F of the International Astronomical Union by the
          Minor Planet Center, Smithsonian Astrophysical Observatory,
                          Cambridge, MA 02138, U.S.A.
			  
             Prepared using the Tamkin Foundation Computer Network

                              MPC at CFA.HARVARD.EDU
            URL https://www.minorplanetcenter.net/    ISSN 1523-6714

                                    2024 EQ3                                    


Observations:
     K24E03Q*1C2024 03 12.36187611 39 03.697-07 56 56.29         21.83GVEE168G96
     K24E03Q 1C2024 03 12.36663211 39 01.710-07 57 44.68         21.71GVEE168G96
     K24E03Q 1C2024 03 12.37138311 38 59.723-07 58 34.10         21.80GVEE168G96
     K24E03Q 1C2024 03 12.37612311 38 57.674-07 59 24.94         20.65GVEE168G96
     K24E03Q 1C2024 03 12.38971311 38 51.886-08 01 46.60         21.16GVEE168G96
     K24E03Q 1C2024 03 12.39089511 38 51.425-08 01 59.34         21.67GVEE168G96
     K24E03Q KC2024 03 12.41360811 38 41.806-08 05 58.42         21.07GVEE168I52
     K24E03Q KC2024 03 12.42095311 38 38.738-08 07 15.89         21.04GVEE168I52
     K24E03Q KC2024 03 12.42830611 38 35.646-08 08 33.25         21.66GVEE168I52
     K24E03Q |C2024 03 13.13517011 33 58.290-10 19 35.20         21.4 GVEE168807
     K24E03Q |C2024 03 13.14404611 33 53.930-10 21 23.20         21.3 GVEE168807
     K24E03Q |C2024 03 13.15299011 33 49.480-10 23 12.00         21.3 GVEE168807
     K24E03Q |C2024 03 13.16171011 33 45.140-10 24 58.50         21.5 GVEE168807
     K24E03Q KC2024 03 13.30604811 32 38.738-10 57 25.99         21.05GVEE168I52
     K24E03Q KC2024 03 13.31216011 32 35.660-10 58 41.92         21.35GVEE168I52
     K24E03Q KC2024 03 13.31826311 32 32.518-10 59 58.52         20.89GVEE168I52
     K24E03Q KC2024 03 13.32435611 32 29.404-11 01 14.34         21.00GVEE168I52

Observer details:
807 Cerro Tololo Observatory, La Serena.  Observers T. Linder, R. Holmes.
    0.61-m f/6.8 Ritchey-Chretien + CCD.
G96 Mt. Lemmon Survey.  Observer D. Rankin.  Measurers T. Beuden, V. F.
    Carvajal, D. Fay, J. B. Fazekas, D. C. Fuls, A. R. Gibbs, A. D. Grauer, H.
    Groeller, J. K. Hogan, R. A. Kowalski, S. M. Larson, G. J. Leonard, D.
    Rankin, R. L. Seaman, F. C. Shelly, K. W. Wierzchos.  1.5-m reflector +
    10K CCD.
I52 Steward Observatory, Mt. Lemmon Station.  Observers H. Groeller, G. J.
    Leonard.  Measurers T. Beuden, V. F. Carvajal, D. Fay, J. B. Fazekas, D.
    C. Fuls, A. R. Gibbs, A. D. Grauer, H. Groeller, J. K. Hogan, R. A.
    Kowalski, S. M. Larson, G. J. Leonard, D. Rankin, R. L. Seaman, F. C.
    Shelly, K. W. Wierzchos.  1.0-m prime focus + CCD.

Orbital elements:
2024 EQ3                                                 Earth MOID = 0.0044 AU
Epoch 2024 Mar. 31.0 TT = JDT 2460400.5                 Veres                   
M 318.30325              (2000.0)            P               Q                  
n   0.79814470     Peri.  276.63702     -0.07723765     +0.99659969             
a   1.1510167      Node   348.81138     -0.84632864     -0.08075112             
e   0.3208951      Incl.    8.50425     -0.52703147     -0.01638048             
P   1.23           H   27.04          G   0.15           U   8                  
Residuals in seconds of arc
240312 G96  0.6-  1.5-    240312 I52  0.2-  0.0     240313 807  0.5-  0.1+
240312 G96  0.2-  0.0     240312 I52  0.2+  0.0     240313 I52  0.6-  0.6-
240312 G96  0.3+  0.4+    240312 I52  0.2+  0.2+    240313 I52  0.3+  0.0
240312 G96  0.2-  0.7-    240313 807  0.0   0.0     240313 I52  0.2+  0.1-
240312 G96  0.6-  0.3+    240313 807  0.1+  0.1+    240313 I52  0.5+  0.4+
240312 G96  0.0   0.0     240313 807  0.3-  0.2+

Ephemeris:
2024 EQ3                 a,e,i = 1.15, 0.32, 9                   q = 0.7817
Date    TT    R. A. (2000) Decl.     Delta      r    Elong.  Phase     V
2024 02 12    12 12 25.7 +13 19 58   0.2591  1.2036   142.8    29.7    25.8
...
2024 02 27    12 12 33.0 +09 18 01   0.1484  1.1277   156.4    20.6    24.2
...
2024 03 06    12 02 40.7 +03 35 16   0.09574 1.0852   165.9    12.8    22.9
...
2024 03 12    11 41 16.1 -06 53 54   0.06015 1.0528   169.3    10.1    21.7
2024 03 13    11 34 52.8 -09 53 28   0.05478 1.0474   167.1    12.2    21.6
2024 03 14    11 26 59.0 -13 29 41   0.04967 1.0420   163.8    15.5    21.5
...
2024 03 20    09 00 53.7 -52 53 30   0.03081 1.0094   115.4    63.0    21.7
...
2024 03 28    02 11 12.6 -46 49 57   0.05681 0.9664    54.8   122.5    25.8
...
2024 04 12    01 05 30.9 -28 24 22   0.1461  0.8906    37.3   137.0    29.1

M. P. C. Staff               (C) Copyright 2024 MPC           M.P.E.C. 2024-E168





More information about the Iaude mailing list